RYR39MV EGSS-LEMG

Flight info

Callsign RYR39MV
Flight time 2h 36m
Altitude 37000
Route NUGBO M183 SILVA Q41 SAM N63 LELNA DCT NOVAN DCT DELOG DCT CRISA N864 VULPE
Aircraft B38M/M-SDE1FGHILORVWXY/HB1

Departure

Time 2026-05-07 08:39
Airport London Stansted Airport (EGSS)

Arrival

Time 2026-05-07 11:16
Airport Málaga-Costa del Sol Airport (LEMG)
Time Latitude Longitude Altitude Speed Heading
2026-05-07 08:20 51.89366 0.25735 351 ft 0 kts 42°
2026-05-07 08:30 51.89359 0.25725 341 ft 4 kts 42°
2026-05-07 08:30 51.89340 0.25696 362 ft 4 kts 43°
2026-05-07 08:31 51.89319 0.25672 359 ft 4 kts
2026-05-07 08:31 51.89304 0.25681 354 ft 2 kts 313°
2026-05-07 08:31 51.89290 0.25704 355 ft 0 kts 313°
2026-05-07 08:36 51.89312 0.25666 358 ft 9 kts 313°
2026-05-07 08:37 51.89363 0.25578 351 ft 12 kts 313°
2026-05-07 08:37 51.89414 0.25468 355 ft 13 kts 275°
2026-05-07 08:37 51.89426 0.25335 353 ft 12 kts 304°
2026-05-07 08:37 51.89485 0.25213 348 ft 16 kts 292°
2026-05-07 08:38 51.89493 0.25024 346 ft 15 kts 268°
2026-05-07 08:38 51.89441 0.24892 339 ft 0 kts 222°
2026-05-07 08:38 51.89438 0.24888 339 ft 0 kts 222°
2026-05-07 08:38 51.89431 0.24877 340 ft 3 kts 222°
2026-05-07 08:39 51.89380 0.24803 339 ft 31 kts 222°
2026-05-07 08:39 51.89007 0.24242 344 ft 112 kts 223°
2026-05-07 08:39 51.88270 0.23135 441 ft 164 kts 223°
2026-05-07 08:39 51.87398 0.21873 1299 ft 171 kts 219°
2026-05-07 08:40 51.86490 0.20558 2174 ft 178 kts 221°
2026-05-07 08:40 51.85553 0.19111 2823 ft 196 kts 223°
2026-05-07 08:40 51.84778 0.17198 3271 ft 227 kts 246°
2026-05-07 08:40 51.84231 0.14658 3955 ft 246 kts 251°
2026-05-07 08:41 51.83700 0.11950 4476 ft 264 kts 251°
2026-05-07 08:41 51.83151 0.09086 5300 ft 263 kts 251°
2026-05-07 08:41 51.82624 0.06255 6456 ft 266 kts 251°
2026-05-07 08:41 51.82086 0.03363 7383 ft 271 kts 251°
2026-05-07 08:42 51.81516 0.00429 8333 ft 276 kts 251°
2026-05-07 08:42 51.80917 -0.02551 9273 ft 281 kts 251°
2026-05-07 08:42 51.80276 -0.05567 10162 ft 287 kts 251°
2026-05-07 08:42 51.79594 -0.08673 10747 ft 303 kts 251°
2026-05-07 08:43 51.78870 -0.11973 11242 ft 319 kts 251°
2026-05-07 08:43 51.78001 -0.15342 11840 ft 331 kts 238°
2026-05-07 08:43 51.76472 -0.18030 12749 ft 332 kts 219°
2026-05-07 08:43 51.74581 -0.20268 13528 ft 337 kts 216°
2026-05-07 08:44 51.72665 -0.22468 14306 ft 340 kts 216°
2026-05-07 08:44 51.70721 -0.24691 15042 ft 343 kts 216°
2026-05-07 08:44 51.68768 -0.26925 15764 ft 346 kts 216°
2026-05-07 08:44 51.66782 -0.29153 16461 ft 349 kts 214°
2026-05-07 08:45 51.64760 -0.31372 17149 ft 353 kts 215°
2026-05-07 08:45 51.62734 -0.33619 17818 ft 356 kts 215°
2026-05-07 08:45 51.60688 -0.35904 18461 ft 359 kts 215°
2026-05-07 08:45 51.58630 -0.38209 19033 ft 362 kts 215°
2026-05-07 08:46 51.58556 -0.38292 19052 ft 362 kts 215°
2026-05-07 08:46 51.56609 -0.40472 19570 ft 365 kts 215°
2026-05-07 08:46 51.54516 -0.42814 20109 ft 369 kts 215°
2026-05-07 08:46 51.52432 -0.45145 20655 ft 371 kts 215°
2026-05-07 08:47 51.50307 -0.47520 21202 ft 374 kts 215°
2026-05-07 08:47 51.48152 -0.49925 21715 ft 377 kts 215°
2026-05-07 08:47 51.45983 -0.52344 22262 ft 380 kts 215°
2026-05-07 08:47 51.43834 -0.54737 22778 ft 383 kts 215°
2026-05-07 08:48 51.41661 -0.57153 23271 ft 386 kts 215°
2026-05-07 08:48 51.39440 -0.59621 23762 ft 389 kts 215°
2026-05-07 08:48 51.37202 -0.62105 24175 ft 392 kts 215°
2026-05-07 08:48 51.34952 -0.64597 24597 ft 394 kts 215°
2026-05-07 08:49 51.32692 -0.67099 25013 ft 397 kts 215°
2026-05-07 08:49 51.30411 -0.69620 25415 ft 399 kts 215°
2026-05-07 08:49 51.28121 -0.72149 25819 ft 402 kts 215°
2026-05-07 08:49 51.25806 -0.74701 26212 ft 404 kts 215°
2026-05-07 08:50 51.23486 -0.77257 26608 ft 406 kts 215°
2026-05-07 08:50 51.21154 -0.79822 26983 ft 409 kts 215°
2026-05-07 08:50 51.18800 -0.82408 27362 ft 411 kts 215°
2026-05-07 08:50 51.16439 -0.84997 27730 ft 413 kts 215°
2026-05-07 08:51 51.14094 -0.87568 28096 ft 415 kts 215°
2026-05-07 08:51 51.11709 -0.90178 28464 ft 417 kts 215°
2026-05-07 08:51 51.09310 -0.92800 28831 ft 419 kts 215°
2026-05-07 08:51 51.06901 -0.95431 29193 ft 421 kts 215°
2026-05-07 08:52 51.04475 -0.98076 29528 ft 424 kts 215°
2026-05-07 08:52 51.02044 -1.00722 29871 ft 426 kts 215°
2026-05-07 08:52 50.99594 -1.03387 30204 ft 427 kts 215°
2026-05-07 08:52 50.97134 -1.06057 30484 ft 429 kts 215°
2026-05-07 08:53 50.94664 -1.08736 30762 ft 431 kts 215°
2026-05-07 08:53 50.92176 -1.11431 31034 ft 433 kts 215°
2026-05-07 08:53 50.89688 -1.14122 31308 ft 434 kts 215°
2026-05-07 08:53 50.87188 -1.16823 31575 ft 436 kts 215°
2026-05-07 08:54 50.84673 -1.19536 31836 ft 438 kts 215°
2026-05-07 08:54 50.82152 -1.22253 32103 ft 439 kts 215°
2026-05-07 08:54 50.79648 -1.24947 32361 ft 441 kts 215°
2026-05-07 08:54 50.77108 -1.27677 32648 ft 441 kts 215°
2026-05-07 08:55 50.74569 -1.30402 33003 ft 441 kts 215°
2026-05-07 08:55 50.72063 -1.33087 33340 ft 440 kts 215°
2026-05-07 08:55 50.69531 -1.35797 33687 ft 439 kts 215°
2026-05-07 08:55 50.67009 -1.38492 34024 ft 438 kts 215°
2026-05-07 08:56 50.64490 -1.41181 34318 ft 438 kts 215°
2026-05-07 08:56 50.61959 -1.43879 34561 ft 438 kts 215°
2026-05-07 08:56 50.59437 -1.46564 34810 ft 438 kts 215°
2026-05-07 08:56 50.56908 -1.49253 35051 ft 438 kts 215°
2026-05-07 08:57 50.54386 -1.51931 35293 ft 438 kts 215°
2026-05-07 08:57 50.51858 -1.54612 35521 ft 438 kts 215°
2026-05-07 08:57 50.49333 -1.57286 35747 ft 438 kts 215°
2026-05-07 08:57 50.46799 -1.59966 35962 ft 439 kts 214°
2026-05-07 08:58 50.44267 -1.62640 36169 ft 439 kts 214°
2026-05-07 08:58 50.41729 -1.65317 36385 ft 439 kts 214°
2026-05-07 08:58 50.39197 -1.67985 36586 ft 440 kts 214°
2026-05-07 08:58 50.36658 -1.70656 36787 ft 440 kts 214°
2026-05-07 08:59 50.34116 -1.73327 36974 ft 440 kts 214°
2026-05-07 08:59 50.31572 -1.75997 37065 ft 441 kts 214°
2026-05-07 08:59 50.26520 -1.81289 37058 ft 439 kts 214°
2026-05-07 09:00 50.21442 -1.86594 37049 ft 439 kts 214°
2026-05-07 09:00 50.16359 -1.91889 37053 ft 439 kts 214°
2026-05-07 09:01 50.11275 -1.97172 37054 ft 439 kts 214°
2026-05-07 09:01 50.06193 -2.02440 37051 ft 439 kts 214°
2026-05-07 09:02 50.01111 -2.07693 37053 ft 438 kts 214°
2026-05-07 09:02 49.95634 -2.11705 37072 ft 438 kts 198°
2026-05-07 09:03 49.90778 -2.14092 37055 ft 440 kts 198°
2026-05-07 09:03 49.84923 -2.16876 37052 ft 440 kts 198°
2026-05-07 09:04 49.79060 -2.19612 37047 ft 440 kts 198°
2026-05-07 09:04 49.73183 -2.22343 37045 ft 440 kts 198°
2026-05-07 09:05 49.67318 -2.25061 37049 ft 440 kts 198°
2026-05-07 09:05 49.61454 -2.27772 37046 ft 440 kts 198°
2026-05-07 09:06 49.55634 -2.30456 37046 ft 440 kts 198°
2026-05-07 09:06 49.49766 -2.33155 37048 ft 440 kts 198°
2026-05-07 09:07 49.43905 -2.35844 37047 ft 439 kts 198°
2026-05-07 09:07 49.38045 -2.38526 37040 ft 439 kts 198°
2026-05-07 09:08 49.32189 -2.41199 37048 ft 439 kts 198°
2026-05-07 09:08 49.26340 -2.43862 37046 ft 438 kts 198°
2026-05-07 09:09 49.20488 -2.46521 37046 ft 438 kts 198°
2026-05-07 09:09 49.14644 -2.49169 37046 ft 438 kts 198°
2026-05-07 09:10 49.08791 -2.51815 37044 ft 438 kts 198°
2026-05-07 09:10 49.02973 -2.54438 37042 ft 438 kts 198°
2026-05-07 09:11 48.97123 -2.57070 37039 ft 438 kts 198°
2026-05-07 09:11 48.91262 -2.59700 37039 ft 439 kts 198°
2026-05-07 09:12 48.85406 -2.62322 37037 ft 439 kts 198°
2026-05-07 09:12 48.79544 -2.64939 37031 ft 438 kts 198°
2026-05-07 09:13 48.73691 -2.67547 37030 ft 439 kts 198°
2026-05-07 09:13 48.67863 -2.70136 37023 ft 438 kts 197°
2026-05-07 09:14 48.62000 -2.72735 37019 ft 438 kts 197°
2026-05-07 09:14 48.56153 -2.75321 37021 ft 438 kts 197°
2026-05-07 09:15 48.50299 -2.77903 37022 ft 438 kts 197°
2026-05-07 09:15 48.44455 -2.80475 37017 ft 438 kts 197°
2026-05-07 09:16 48.38606 -2.83044 37022 ft 438 kts 197°
2026-05-07 09:16 48.32763 -2.85603 37024 ft 437 kts 197°
2026-05-07 09:17 48.26924 -2.88154 37026 ft 437 kts 197°
2026-05-07 09:17 48.21089 -2.90698 37025 ft 437 kts 197°
2026-05-07 09:18 48.15284 -2.93222 37017 ft 437 kts 197°
2026-05-07 09:18 48.09447 -2.95755 37020 ft 437 kts 197°
2026-05-07 09:19 48.03608 -2.98282 37020 ft 436 kts 197°
2026-05-07 09:19 47.97768 -3.00804 37024 ft 436 kts 197°
2026-05-07 09:20 47.91932 -3.03318 37023 ft 436 kts 197°
2026-05-07 09:20 47.86101 -3.05824 37023 ft 436 kts 197°
2026-05-07 09:21 47.80272 -3.08324 37022 ft 436 kts 197°
2026-05-07 09:21 47.74444 -3.10816 37023 ft 436 kts 197°
2026-05-07 09:22 47.68614 -3.13305 37018 ft 436 kts 197°
2026-05-07 09:22 47.62787 -3.15786 37022 ft 435 kts 197°
2026-05-07 09:23 47.57001 -3.18243 37021 ft 435 kts 197°
2026-05-07 09:23 47.51176 -3.20713 37018 ft 435 kts 197°
2026-05-07 09:24 47.45352 -3.23175 37023 ft 435 kts 197°
2026-05-07 09:24 47.39530 -3.25631 37020 ft 435 kts 197°
2026-05-07 09:25 47.33707 -3.28082 37021 ft 435 kts 197°
2026-05-07 09:25 47.27893 -3.30524 37021 ft 435 kts 197°
2026-05-07 09:26 47.22073 -3.32962 37022 ft 435 kts 197°
2026-05-07 09:26 47.16250 -3.35396 37023 ft 434 kts 197°
2026-05-07 09:27 47.10437 -3.37821 37027 ft 434 kts 197°
2026-05-07 09:28 47.01717 -3.41447 37025 ft 434 kts 197°
2026-05-07 09:28 46.95938 -3.43844 37026 ft 434 kts 197°
2026-05-07 09:29 46.90124 -3.46250 37025 ft 434 kts 197°
2026-05-07 09:29 46.84312 -3.48649 37025 ft 434 kts 197°
2026-05-07 09:30 46.78506 -3.51041 37024 ft 433 kts 197°
2026-05-07 09:30 46.72700 -3.53427 37024 ft 433 kts 197°
2026-05-07 09:31 46.66897 -3.55807 37023 ft 433 kts 197°
2026-05-07 09:31 46.61104 -3.58178 37024 ft 433 kts 197°
2026-05-07 09:32 46.55309 -3.60545 37024 ft 432 kts 197°
2026-05-07 09:32 46.49516 -3.62907 37025 ft 433 kts 197°
2026-05-07 09:33 46.43720 -3.65264 37026 ft 432 kts 197°
2026-05-07 09:33 46.37923 -3.67616 37024 ft 433 kts 197°
2026-05-07 09:34 46.32156 -3.69887 37014 ft 433 kts 191°
2026-05-07 09:34 46.26114 -3.70824 37012 ft 434 kts 187°
2026-05-07 09:35 46.20140 -3.71723 37021 ft 434 kts 187°
2026-05-07 09:35 46.14130 -3.72620 37022 ft 434 kts 187°
2026-05-07 09:36 46.08115 -3.73514 37032 ft 434 kts 187°
2026-05-07 09:36 46.02103 -3.74406 37031 ft 434 kts 187°
2026-05-07 09:37 45.96091 -3.75297 37019 ft 434 kts 187°
2026-05-07 09:37 45.90083 -3.76184 37029 ft 434 kts 187°
2026-05-07 09:38 45.84072 -3.77071 37027 ft 434 kts 187°
2026-05-07 09:38 45.78057 -3.77956 37018 ft 434 kts 187°
2026-05-07 09:39 45.72051 -3.78837 37022 ft 434 kts 187°
2026-05-07 09:39 45.66047 -3.79717 37017 ft 434 kts 187°
2026-05-07 09:40 45.60039 -3.80595 37018 ft 434 kts 187°
2026-05-07 09:40 45.54035 -3.81471 37016 ft 434 kts 187°
2026-05-07 09:41 45.48074 -3.82338 37020 ft 434 kts 187°
2026-05-07 09:41 45.42074 -3.83210 37016 ft 434 kts 187°
2026-05-07 09:42 45.36065 -3.84081 37013 ft 434 kts 187°
2026-05-07 09:42 45.30060 -3.84949 37009 ft 433 kts 187°
2026-05-07 09:43 45.24056 -3.85816 37010 ft 433 kts 187°
2026-05-07 09:43 45.18048 -3.86681 37008 ft 433 kts 187°
2026-05-07 09:44 45.12078 -3.87538 37008 ft 433 kts 187°
2026-05-07 09:44 45.06078 -3.88399 37005 ft 433 kts 187°
2026-05-07 09:45 45.00071 -3.89259 37005 ft 433 kts 187°
2026-05-07 09:45 44.94068 -3.90116 37003 ft 433 kts 187°
2026-05-07 09:46 44.88071 -3.90970 37004 ft 433 kts 187°
2026-05-07 09:46 44.82080 -3.91822 36999 ft 433 kts 187°
2026-05-07 09:47 44.77098 -3.92529 36996 ft 433 kts 187°
2026-05-07 09:47 44.70142 -3.93514 36997 ft 432 kts 187°
2026-05-07 09:48 44.64154 -3.94360 36990 ft 432 kts 187°
2026-05-07 09:48 44.58171 -3.95204 36992 ft 432 kts 187°
2026-05-07 09:49 44.52192 -3.96045 36992 ft 432 kts 187°
2026-05-07 09:49 44.46215 -3.96885 36991 ft 431 kts 187°
2026-05-07 09:50 44.40240 -3.97723 36990 ft 431 kts 187°
2026-05-07 09:50 44.35278 -3.98417 36986 ft 431 kts 187°
2026-05-07 09:51 44.29294 -3.99129 36977 ft 431 kts 186°
2026-05-07 09:51 44.22334 -3.99923 36978 ft 431 kts 186°
2026-05-07 09:52 44.17326 -4.00497 36978 ft 431 kts 186°
2026-05-07 09:52 44.11350 -4.01180 36975 ft 431 kts 186°
2026-05-07 09:53 44.05408 -4.01857 36969 ft 431 kts 186°
2026-05-07 09:53 43.99432 -4.02538 36968 ft 430 kts 186°
2026-05-07 09:54 43.93460 -4.03217 36965 ft 430 kts 186°
2026-05-07 09:54 43.87496 -4.03893 36957 ft 430 kts 186°
2026-05-07 09:55 43.81528 -4.04568 36955 ft 430 kts 186°
2026-05-07 09:55 43.75564 -4.05241 36956 ft 430 kts 186°
2026-05-07 09:56 43.69600 -4.05914 36957 ft 429 kts 186°
2026-05-07 09:56 43.63648 -4.06583 36950 ft 429 kts 186°
2026-05-07 09:57 43.57690 -4.07252 36943 ft 429 kts 186°
2026-05-07 09:57 43.51741 -4.07919 36941 ft 429 kts 186°
2026-05-07 09:58 43.45831 -4.08580 36943 ft 429 kts 186°
2026-05-07 09:58 43.39888 -4.09242 36942 ft 428 kts 186°
2026-05-07 09:59 43.33940 -4.09905 36938 ft 428 kts 186°
2026-05-07 09:59 43.27991 -4.10567 36943 ft 428 kts 186°
2026-05-07 10:00 43.22043 -4.11227 36945 ft 428 kts 186°
2026-05-07 10:00 43.16130 -4.11881 36944 ft 428 kts 186°
2026-05-07 10:01 43.10186 -4.12538 36933 ft 428 kts 186°
2026-05-07 10:01 43.04236 -4.13195 36938 ft 428 kts 186°
2026-05-07 10:02 42.98302 -4.13848 36941 ft 428 kts 186°
2026-05-07 10:02 42.92361 -4.14500 36943 ft 428 kts 186°
2026-05-07 10:03 42.86423 -4.15152 36944 ft 428 kts 186°
2026-05-07 10:03 42.80485 -4.15802 36949 ft 428 kts 186°
2026-05-07 10:04 42.74553 -4.16450 36944 ft 428 kts 186°
2026-05-07 10:04 42.68660 -4.17092 36952 ft 428 kts 186°
2026-05-07 10:05 42.62725 -4.17738 36956 ft 428 kts 186°
2026-05-07 10:05 42.56792 -4.18382 36949 ft 428 kts 186°
2026-05-07 10:06 42.50849 -4.19026 36947 ft 428 kts 186°
2026-05-07 10:06 42.44898 -4.19670 36950 ft 429 kts 186°
2026-05-07 10:07 42.38947 -4.20313 36948 ft 429 kts 186°
2026-05-07 10:07 42.33001 -4.20954 36945 ft 429 kts 186°
2026-05-07 10:08 42.27050 -4.21594 36947 ft 429 kts 186°
2026-05-07 10:08 42.21087 -4.22235 36942 ft 429 kts 186°
2026-05-07 10:09 42.15166 -4.22869 36943 ft 430 kts 186°
2026-05-07 10:09 42.09203 -4.23507 36946 ft 430 kts 186°
2026-05-07 10:10 42.03243 -4.24144 36941 ft 430 kts 186°
2026-05-07 10:10 41.97271 -4.24780 36941 ft 430 kts 186°
2026-05-07 10:11 41.91300 -4.25415 36937 ft 430 kts 186°
2026-05-07 10:11 41.85331 -4.26049 36936 ft 431 kts 186°
2026-05-07 10:12 41.79350 -4.26683 36936 ft 431 kts 186°
2026-05-07 10:12 41.73368 -4.27315 36930 ft 431 kts 186°
2026-05-07 10:13 41.67379 -4.27948 36931 ft 432 kts 186°
2026-05-07 10:13 41.61422 -4.28576 36928 ft 432 kts 186°
2026-05-07 10:14 41.55420 -4.29207 36925 ft 433 kts 186°
2026-05-07 10:14 41.49418 -4.29837 36925 ft 433 kts 186°
2026-05-07 10:15 41.43406 -4.30467 36922 ft 433 kts 186°
2026-05-07 10:15 41.37396 -4.31096 36920 ft 433 kts 186°
2026-05-07 10:16 41.31385 -4.31724 36919 ft 433 kts 187°
2026-05-07 10:16 41.25368 -4.32350 36919 ft 434 kts 187°
2026-05-07 10:17 41.19348 -4.32976 36919 ft 434 kts 187°
2026-05-07 10:17 41.13323 -4.33602 36919 ft 434 kts 187°
2026-05-07 10:18 41.07300 -4.34226 36919 ft 434 kts 187°
2026-05-07 10:18 41.01274 -4.34850 36920 ft 434 kts 187°
2026-05-07 10:19 40.95243 -4.35473 36926 ft 434 kts 187°
2026-05-07 10:19 40.89219 -4.36093 36930 ft 435 kts 187°
2026-05-07 10:20 40.83194 -4.36713 36932 ft 434 kts 187°
2026-05-07 10:20 40.77197 -4.37329 36938 ft 436 kts 187°
2026-05-07 10:21 40.71152 -4.37949 36935 ft 435 kts 187°
2026-05-07 10:21 40.65114 -4.38566 36933 ft 435 kts 187°
2026-05-07 10:22 40.59068 -4.39184 36938 ft 435 kts 187°
2026-05-07 10:22 40.53028 -4.39800 36939 ft 436 kts 187°
2026-05-07 10:23 40.46981 -4.40416 36936 ft 435 kts 187°
2026-05-07 10:23 40.40941 -4.41029 36939 ft 436 kts 187°
2026-05-07 10:24 40.34895 -4.41642 36937 ft 436 kts 187°
2026-05-07 10:24 40.28866 -4.42252 36934 ft 435 kts 187°
2026-05-07 10:25 40.22809 -4.42864 36927 ft 435 kts 187°
2026-05-07 10:25 40.16763 -4.43474 36927 ft 436 kts 187°
2026-05-07 10:26 40.10717 -4.44082 36924 ft 436 kts 187°
2026-05-07 10:26 40.04665 -4.44691 36920 ft 436 kts 187°
2026-05-07 10:27 39.98661 -4.45293 36917 ft 436 kts 187°
2026-05-07 10:27 39.92616 -4.45898 36914 ft 436 kts 187°
2026-05-07 10:28 39.86561 -4.46503 36921 ft 436 kts 187°
2026-05-07 10:28 39.80521 -4.47106 36915 ft 435 kts 187°
2026-05-07 10:29 39.74477 -4.47709 36921 ft 436 kts 187°
2026-05-07 10:29 39.68430 -4.48310 36918 ft 435 kts 188°
2026-05-07 10:30 39.59371 -4.49209 36918 ft 435 kts 188°
2026-05-07 10:30 39.53328 -4.49807 36922 ft 435 kts 188°
2026-05-07 10:31 39.47325 -4.50400 36920 ft 435 kts 188°
2026-05-07 10:31 39.41287 -4.50996 36917 ft 435 kts 188°
2026-05-07 10:32 39.35245 -4.51591 36919 ft 435 kts 188°
2026-05-07 10:32 39.29210 -4.52185 36938 ft 435 kts 188°
2026-05-07 10:33 39.23177 -4.52777 36915 ft 434 kts 188°
2026-05-07 10:33 39.17141 -4.53369 36917 ft 434 kts 188°
2026-05-07 10:34 39.11119 -4.53958 36922 ft 434 kts 188°
2026-05-07 10:34 39.05101 -4.54546 36913 ft 434 kts 188°
2026-05-07 10:35 38.99114 -4.55130 36928 ft 434 kts 188°
2026-05-07 10:35 38.93131 -4.55851 36915 ft 429 kts 195°
2026-05-07 10:36 38.87242 -4.57161 36910 ft 429 kts 194°
2026-05-07 10:36 38.81348 -4.58385 36913 ft 429 kts 193°
2026-05-07 10:37 38.75459 -4.59595 36915 ft 429 kts 193°
2026-05-07 10:37 38.70556 -4.60599 36905 ft 429 kts 193°
2026-05-07 10:38 38.64665 -4.61804 36911 ft 428 kts 194°
2026-05-07 10:38 38.58781 -4.63005 36914 ft 428 kts 193°
2026-05-07 10:39 38.52898 -4.64205 36906 ft 428 kts 194°
2026-05-07 10:39 38.47019 -4.65401 36912 ft 428 kts 194°
2026-05-07 10:40 38.41201 -4.66583 36461 ft 419 kts 194°
2026-05-07 10:40 38.38325 -4.67167 36128 ft 419 kts 194°
2026-05-07 10:40 38.35443 -4.67752 35681 ft 418 kts 194°
2026-05-07 10:41 38.32577 -4.68333 35164 ft 416 kts 194°
2026-05-07 10:41 38.29724 -4.68917 34610 ft 415 kts 195°
2026-05-07 10:41 38.26877 -4.69502 34119 ft 414 kts 195°
2026-05-07 10:41 38.24029 -4.70086 33598 ft 414 kts 195°
2026-05-07 10:42 38.21186 -4.70668 33052 ft 415 kts 195°
2026-05-07 10:42 38.18328 -4.71253 32548 ft 416 kts 195°
2026-05-07 10:42 38.15465 -4.71840 32065 ft 419 kts 194°
2026-05-07 10:42 38.12584 -4.72429 31597 ft 420 kts 194°
2026-05-07 10:43 38.09686 -4.73021 31100 ft 422 kts 194°
2026-05-07 10:43 38.06783 -4.73614 30609 ft 423 kts 194°
2026-05-07 10:43 38.03863 -4.74209 30138 ft 426 kts 194°
2026-05-07 10:43 38.00971 -4.74799 29601 ft 427 kts 194°
2026-05-07 10:44 37.98014 -4.75401 29099 ft 423 kts 194°
2026-05-07 10:44 37.95149 -4.75984 28657 ft 421 kts 194°
2026-05-07 10:44 37.92266 -4.76570 28205 ft 419 kts 194°
2026-05-07 10:44 37.89402 -4.77152 27750 ft 416 kts 194°
2026-05-07 10:45 37.86546 -4.77732 27306 ft 414 kts 194°
2026-05-07 10:45 37.83708 -4.78307 26866 ft 412 kts 193°
2026-05-07 10:45 37.80886 -4.78879 26431 ft 410 kts 193°
2026-05-07 10:45 37.78083 -4.79446 25995 ft 408 kts 193°
2026-05-07 10:46 37.75243 -4.79514 25481 ft 413 kts 175°
2026-05-07 10:46 37.72451 -4.78560 25106 ft 417 kts 168°
2026-05-07 10:46 37.69663 -4.77577 24693 ft 415 kts 169°
2026-05-07 10:46 37.66889 -4.76611 24273 ft 413 kts 168°
2026-05-07 10:47 37.64128 -4.75648 23842 ft 410 kts 168°
2026-05-07 10:47 37.61388 -4.74691 23408 ft 408 kts 168°
2026-05-07 10:47 37.58663 -4.73740 22923 ft 405 kts 168°
2026-05-07 10:47 37.55954 -4.72796 22496 ft 402 kts 168°
2026-05-07 10:48 37.53263 -4.71859 22083 ft 400 kts 168°
2026-05-07 10:48 37.50597 -4.70931 21683 ft 395 kts 168°
2026-05-07 10:48 37.47960 -4.70014 21274 ft 391 kts 168°
2026-05-07 10:48 37.45356 -4.69109 20880 ft 386 kts 168°
2026-05-07 10:49 37.42787 -4.68216 20487 ft 382 kts 168°
2026-05-07 10:49 37.40235 -4.67331 20104 ft 378 kts 168°
2026-05-07 10:49 37.37749 -4.66308 19652 ft 379 kts 157°
2026-05-07 10:49 37.35468 -4.64607 19176 ft 381 kts 152°
2026-05-07 10:50 37.33186 -4.62923 18664 ft 381 kts 153°
2026-05-07 10:50 37.30889 -4.61235 18104 ft 382 kts 153°
2026-05-07 10:50 37.28619 -4.59569 17507 ft 384 kts 153°
2026-05-07 10:50 37.26178 -4.58302 16821 ft 380 kts 172°
2026-05-07 10:51 37.23570 -4.58138 16346 ft 373 kts 183°
2026-05-07 10:51 37.20973 -4.58132 15828 ft 372 kts 182°
2026-05-07 10:51 37.18379 -4.58110 15296 ft 372 kts 181°
2026-05-07 10:51 37.15790 -4.58089 14764 ft 372 kts 181°
2026-05-07 10:52 37.13202 -4.58068 14235 ft 372 kts 181°
2026-05-07 10:52 37.10606 -4.58047 13695 ft 372 kts 181°
2026-05-07 10:52 37.08009 -4.58027 13071 ft 373 kts 181°
2026-05-07 10:52 37.05417 -4.58005 12490 ft 373 kts 181°
2026-05-07 10:53 37.02819 -4.57985 11885 ft 374 kts 181°
2026-05-07 10:53 37.00227 -4.57964 11407 ft 371 kts 181°
2026-05-07 10:53 36.98659 -4.57979 11114 ft 368 kts 185°
2026-05-07 10:54 36.96195 -4.58717 10542 ft 366 kts 204°
2026-05-07 10:54 36.94069 -4.60422 9976 ft 364 kts 224°
2026-05-07 10:54 36.92672 -4.62983 9725 ft 353 kts 250°
2026-05-07 10:54 36.92406 -4.65936 9688 ft 339 kts 278°
2026-05-07 10:55 36.93297 -4.68578 9639 ft 327 kts 306°
2026-05-07 10:55 36.94981 -4.70384 9561 ft 316 kts 332°
2026-05-07 10:55 36.97083 -4.71003 9439 ft 314 kts
2026-05-07 10:55 36.99237 -4.70493 9380 ft 317 kts
2026-05-07 10:56 37.01421 -4.70141 9238 ft 316 kts
2026-05-07 10:56 37.03619 -4.69938 9116 ft 316 kts
2026-05-07 10:56 37.05810 -4.69827 8958 ft 314 kts
2026-05-07 10:56 37.07964 -4.69776 8804 ft 306 kts 360°
2026-05-07 10:57 37.10059 -4.69757 8711 ft 297 kts 359°
2026-05-07 10:57 37.12096 -4.69755 8593 ft 289 kts 359°
2026-05-07 10:57 37.14109 -4.69766 8454 ft 288 kts 357°
2026-05-07 10:57 37.16017 -4.70350 8342 ft 283 kts 329°
2026-05-07 10:58 37.17360 -4.71986 8276 ft 268 kts 298°
2026-05-07 10:58 37.17969 -4.74148 8263 ft 251 kts 277°
2026-05-07 10:58 37.18023 -4.76201 8271 ft 231 kts 270°
2026-05-07 10:58 37.18447 -4.78137 8191 ft 237 kts 297°
2026-05-07 10:59 37.19308 -4.79946 8179 ft 245 kts 301°
2026-05-07 10:59 37.20221 -4.81769 8108 ft 248 kts 301°
2026-05-07 10:59 37.21141 -4.83611 8062 ft 248 kts 301°
2026-05-07 10:59 37.22057 -4.85445 7990 ft 248 kts 301°
2026-05-07 11:00 37.22884 -4.87335 7927 ft 247 kts 292°
2026-05-07 11:00 37.23520 -4.89341 7825 ft 247 kts 290°
2026-05-07 11:00 37.24129 -4.91351 7785 ft 247 kts 290°
2026-05-07 11:00 37.24720 -4.93374 7732 ft 246 kts 289°
2026-05-07 11:01 37.25220 -4.95421 7674 ft 246 kts 277°
2026-05-07 11:01 37.25007 -4.97513 7579 ft 244 kts 247°
2026-05-07 11:01 37.23979 -4.99179 7527 ft 244 kts 216°
2026-05-07 11:01 37.22423 -4.99960 7491 ft 244 kts 186°
2026-05-07 11:02 37.20749 -4.99673 7407 ft 245 kts 160°
2026-05-07 11:02 37.19367 -4.98462 7322 ft 246 kts 129°
2026-05-07 11:02 37.18570 -4.96606 7287 ft 235 kts 111°
2026-05-07 11:02 37.18022 -4.94748 7216 ft 219 kts 110°
2026-05-07 11:03 37.17527 -4.93030 7130 ft 200 kts 110°
2026-05-07 11:03 37.17074 -4.91460 7030 ft 188 kts 110°
2026-05-07 11:03 37.16616 -4.89880 6874 ft 196 kts 110°
2026-05-07 11:03 37.16142 -4.88263 6720 ft 198 kts 110°
2026-05-07 11:04 37.15606 -4.86677 6495 ft 197 kts 117°
2026-05-07 11:04 37.14931 -4.85186 6352 ft 196 kts 120°
2026-05-07 11:04 37.14065 -4.83879 6073 ft 195 kts 141°
2026-05-07 11:04 37.12934 -4.82975 5906 ft 196 kts 149°
2026-05-07 11:05 37.11710 -4.82165 5698 ft 199 kts 157°
2026-05-07 11:05 37.10354 -4.81635 5489 ft 207 kts 164°
2026-05-07 11:05 37.08936 -4.81180 5327 ft 212 kts 165°
2026-05-07 11:05 37.07517 -4.80728 5161 ft 213 kts 165°
2026-05-07 11:06 37.06076 -4.80265 5022 ft 214 kts 165°
2026-05-07 11:06 37.04637 -4.79800 4899 ft 214 kts 166°
2026-05-07 11:06 37.03193 -4.79333 4776 ft 214 kts 165°
2026-05-07 11:06 37.02236 -4.79026 4720 ft 214 kts 165°
2026-05-07 11:07 37.00299 -4.78428 4594 ft 214 kts 166°
2026-05-07 11:07 36.98856 -4.77952 4427 ft 214 kts 166°
2026-05-07 11:07 36.97417 -4.77487 4290 ft 214 kts 165°
2026-05-07 11:07 36.95955 -4.77132 4169 ft 214 kts 173°
2026-05-07 11:08 36.94497 -4.76954 4062 ft 213 kts 175°
2026-05-07 11:08 36.93023 -4.76791 3931 ft 212 kts 175°
2026-05-07 11:08 36.91565 -4.76504 3780 ft 213 kts 163°
2026-05-07 11:08 36.90178 -4.75927 3545 ft 208 kts 158°
2026-05-07 11:09 36.88831 -4.75291 3473 ft 207 kts 160°
2026-05-07 11:09 36.87477 -4.74678 3370 ft 206 kts 160°
2026-05-07 11:09 36.86125 -4.74068 3391 ft 207 kts 160°
2026-05-07 11:09 36.84777 -4.73458 3224 ft 205 kts 160°
2026-05-07 11:10 36.83437 -4.72848 3124 ft 205 kts 160°
2026-05-07 11:10 36.82107 -4.72244 2940 ft 200 kts 160°
2026-05-07 11:10 36.80819 -4.71656 2995 ft 195 kts 160°
2026-05-07 11:10 36.79547 -4.71076 3056 ft 195 kts 160°
2026-05-07 11:11 36.78276 -4.70507 2986 ft 193 kts 160°
2026-05-07 11:11 36.77171 -4.69577 2952 ft 192 kts 131°
2026-05-07 11:11 36.76406 -4.68213 2985 ft 193 kts 119°
2026-05-07 11:11 36.75773 -4.66726 2814 ft 194 kts 116°
2026-05-07 11:12 36.75163 -4.65237 2589 ft 188 kts 117°
2026-05-07 11:12 36.74589 -4.63861 2373 ft 173 kts 117°
2026-05-07 11:12 36.74036 -4.62543 2155 ft 171 kts 117°
2026-05-07 11:12 36.73488 -4.61235 1932 ft 170 kts 117°
2026-05-07 11:13 36.72952 -4.59954 1718 ft 161 kts 116°
2026-05-07 11:13 36.72457 -4.58770 1482 ft 150 kts 117°
2026-05-07 11:13 36.71987 -4.57649 1298 ft 146 kts 117°
2026-05-07 11:13 36.71517 -4.56535 1088 ft 144 kts 118°
2026-05-07 11:14 36.71053 -4.55446 930 ft 141 kts 118°
2026-05-07 11:14 36.70699 -4.54576 772 ft 136 kts 118°
2026-05-07 11:14 36.70270 -4.53564 544 ft 129 kts 118°
2026-05-07 11:14 36.69831 -4.52521 390 ft 138 kts 117°
2026-05-07 11:15 36.69388 -4.51456 200 ft 137 kts 117°
2026-05-07 11:15 36.68960 -4.50436 51 ft 128 kts 117°
2026-05-07 11:15 36.68610 -4.49601 41 ft 76 kts 117°
2026-05-07 11:15 36.68413 -4.49131 43 ft 56 kts 120°
2026-05-07 11:16 36.68272 -4.48933 42 ft 37 kts 143°
2026-05-07 11:16 36.68110 -4.48899 41 ft 9 kts 265°
2026-05-07 11:16 36.68142 -4.48973 41 ft 12 kts 305°
2026-05-07 11:16 36.68198 -4.49068 41 ft 15 kts 303°
2026-05-07 11:17 36.68249 -4.49190 40 ft 17 kts 297°
2026-05-07 11:17 36.68270 -4.49333 41 ft 18 kts 232°
2026-05-07 11:17 36.68183 -4.49426 40 ft 17 kts 220°
2026-05-07 11:17 36.68088 -4.49529 40 ft 19 kts 221°
2026-05-07 11:18 36.67990 -4.49637 39 ft 14 kts 222°
2026-05-07 11:18 36.67933 -4.49701 38 ft 7 kts 221°
2026-05-07 11:18 36.67890 -4.49749 38 ft 10 kts 221°
2026-05-07 11:18 36.67831 -4.49814 38 ft 13 kts 221°
2026-05-07 11:19 36.67750 -4.49835 37 ft 14 kts 139°
2026-05-07 11:19 36.67679 -4.49736 37 ft 16 kts 131°
2026-05-07 11:19 36.67598 -4.49621 37 ft 19 kts 131°
2026-05-07 11:19 36.67511 -4.49501 37 ft 18 kts 133°
2026-05-07 11:20 36.67426 -4.49385 37 ft 17 kts 131°
2026-05-07 11:20 36.67352 -4.49275 37 ft 14 kts 111°
2026-05-07 11:20 36.67356 -4.49169 37 ft 11 kts 104°
2026-05-07 11:20 36.67345 -4.49116 36 ft 2 kts 105°
2026-05-07 11:21 36.67344 -4.49111 37 ft 0 kts 105°